Bei uns kannst du mitfliegen! Besuche uns und lerne uns kennen - als Gast, Pilot oder jemand der es werden möchte.

Kölner Klub für Luftsport e.V.

KKFL.de

Ausbildung – Fliegen – Abenteuer

Ausbildung im KKFL

Ausbildung

Fliegen lernen im Verein
Der KKFL.de bietet eine effiziente, schnelle Ausbildung zur Pivatpilotenlizenz (PPL) in verschiedenen Ausprägungen an. Nach der Ausbildung können diverse Ergänzungen vom Verstellpropeller bis hin zu Nachtflug oder das Fliegen nach Instrumentenflugregeln (IFR) angeschlossen werden.
Fliegen im Verein ist günstig!

Unsere Flotte

Cessna 172 S

D-EOCD
Die Cessna ist als schnelle Schul- und Reisemaschine gleichsam beliebt. Unsere vereins-eigene Flotte sorgt für Abwechlung bei den Piloten und unsere Werft senkt Kosten. In der Ausbildung dürfen Schüler über 'ihre Maschine' mit entscheiden.

Cessna 172 R

D-EFPB

Piper PA 28 II

D-EFPA

Aquila A210

D-EAQJ

Piper PA 28 II

D-ELFF

Flugplatz Hangelar


[Quelle: ADDS]
METAR
EDDK 242120Z 33005KT CAVOK 15/07 Q1015 NOSIG =
EDDK 241700Z 2418/2524 31006KT CAVOK PROB30 TEMPO 2418/2420 32011KT SHRA BKN050CB TEMPO 2423/2506 VRB03KT BECMG 2517/2520 VRB02KT
TAF
EDDK 241700Z 2418/2524 31006KT CAVOK PROB30 TEMPO 2418/2420 32011KT SHRA BKN050CB TEMPO 2423/2506 VRB03KT BECMG 2517/2520 VRB02KT =
SR / SS: 03:30 / 19:25 UTC (EDKB 2019-05-24)

Du willst fliegen?

Während unserer Bürozeiten und auch dazwischen sind wir für deine Fragen da.
Bitte kontaktiere den Verein unter den angegebenen Adressen.
© 2018 - Kölner Klub für Luftsport e.V.
Bonn / Hangelar - EDKB - Germany